This is the latest recevied weather packets stored in our database for station/object 5B4APJ-13. If no packets are shown the sender has not sent any weather packets the latest 10 day(s).
| Time | Temp. | Humidity | Pressure | Rain* | Wind** | Luminosity | Snow |
|---|---|---|---|---|---|---|---|
| 1777974122 | 14.44° C | 64% | 1012.9 hPa | 0 mm | 1.34 m/s, 65° | 170 W/m² | - |
| 1777973822 | 14.44° C | 64% | 1012.9 hPa | 0 mm | 0.45 m/s, 255° | 138 W/m² | - |
| 1777973522 | 14.44° C | 64% | 1012.7 hPa | 0 mm | 0.89 m/s, 160° | 80 W/m² | - |
| 1777973222 | 14.44° C | 64% | 1012.8 hPa | 0 mm | 1.79 m/s, 169° | 68 W/m² | - |
| 1777972922 | 15.56° C | 60% | 1012.8 hPa | 0 mm | 2.68 m/s, 159° | 80 W/m² | - |
| 1777972622 | 16.11° C | 56% | 1012.7 hPa | 0 mm | 1.34 m/s, 252° | 105 W/m² | - |
| 1777972322 | 16.11° C | 48% | 1012.6 hPa | 0 mm | 0.45 m/s, 225° | 166 W/m² | - |
| 1777972022 | 16.11° C | 46% | 1012.7 hPa | 0 mm | 1.34 m/s, 270° | 336 W/m² | - |
| 1777971722 | 16.67° C | 45% | 1012.7 hPa | 0 mm | 2.24 m/s, 249° | 328 W/m² | - |
| 1777971422 | 15.56° C | 47% | 1012.7 hPa | 0 mm | 1.79 m/s, 279° | 279 W/m² | - |
| 1777971123 | 15.56° C | 46% | 1012.6 hPa | 0 mm | 0.89 m/s, 33° | 244 W/m² | - |
| 1777970822 | 16.11° C | 46% | 1012.6 hPa | 0 mm | 0.89 m/s, 291° | 239 W/m² | - |
| 1777970522 | 16.11° C | 45% | 1012.5 hPa | 0 mm | 0.89 m/s, 85° | 250 W/m² | - |
| 1777970222 | 16.11° C | 48% | 1012.5 hPa | 0 mm | 0.89 m/s, 62° | 367 W/m² | - |
| 1777969922 | 15.56° C | 48% | 1012.5 hPa | 0 mm | 1.34 m/s, 9° | 616 W/m² | - |
| 1777969623 | 15.56° C | 49% | 1012.4 hPa | 0 mm | 1.79 m/s, 292° | 322 W/m² | - |
| 1777969322 | 15° C | 50% | 1012.2 hPa | 0 mm | 4.02 m/s, 329° | 407 W/m² | - |
| 1777969022 | 15° C | 54% | 1012.5 hPa | 0 mm | 0.45 m/s, 347° | 271 W/m² | - |
| 1777968723 | 15° C | 54% | 1012.5 hPa | 0 mm | 1.79 m/s, 73° | 259 W/m² | - |
| 1777968423 | 15° C | 54% | 1012.5 hPa | 0 mm | 0.89 m/s, 69° | 243 W/m² | - |
| 1777968122 | 15° C | 54% | 1012.4 hPa | 0 mm | 1.34 m/s, 293° | 252 W/m² | - |
| 1777967822 | 15° C | 55% | 1012.4 hPa | 0 mm | 3.13 m/s, 350° | 304 W/m² | - |
| 1777967522 | 15° C | 56% | 1012.5 hPa | 0 mm | 3.13 m/s, 302° | 466 W/m² | - |
| 1777967223 | 15.56° C | 55% | 1012.1 hPa | 0 mm | 4.02 m/s, 328° | 329 W/m² | - |
| 1777966923 | 15.56° C | 53% | 1012.1 hPa | 0 mm | 6.26 m/s, 324° | 822 W/m² | - |
* Rain latest hour (hover to see other rain measurements)
** Current wind speed in m/s (hover to see current wind gust speed)